This demonstration page uses our WeatherBlox Daily Observations layout. Learn more.

Hourly Observations for May 29, 2017

Temp ( °F °C ) Dew Point ( °F °C ) Humidity (%) Winds ( mph kmh ) Pressure ( in mb ) Visibility ( mi km ) Precip ( " mm )
12:15 am 00:15 Clear 55 12.5 47 8.6 77 77 W 7 11 30.03 1017 10 16.09344 0 0
12:35 am 00:35 Clear 54 12 48 8.7 80 80 W 8 13 30.03 1017 10 16.09344 0 0
12:55 am 00:55 Clear 53 11.6 47 8.5 81 81 W 8 13 30.03 1017 10 16.09344 0 0
1:15 am 01:15 Clear 53 11.6 47 8.5 81 81 W 9 15 30.03 1017 10 16.09344 0 0
1:35 am 01:35 Clear 53 11.7 47 8.5 81 81 WNW 7 11 30.03 1017 10 16.09344 0 0
1:55 am 01:55 Clear 51 10.5 47 8.2 86 86 W 8 13 30.03 1017 10 16.09344 0 0
2:15 am 02:15 Clear 51 10.7 47 8.3 85 85 W 8 13 30.03 1017 10 16.09344 0 0
2:35 am 02:35 Clear 50 10.1 46 7.7 85 85 WNW 7 11 30.06 1018 10 16.09344 0 0
2:55 am 02:55 Clear 51 10.4 46 7.8 84 84 WNW 7 11 30.03 1017 10 16.09344 0 0
3:15 am 03:15 Clear 51 10.5 46 7.8 84 84 NW 7 11 30.03 1017 10 16.09344 0 0
3:35 am 03:35 Clear 51 10.5 46 7.9 84 84 W 9 15 30.03 1017 10 16.09344 0 0
3:55 am 03:55 Clear 51 10.6 46 8 84 84 WNW 9 15 30.03 1017 10 16.09344 0 0
4:15 am 04:15 Clear 51 10.4 46 7.7 84 84 NW 9 15 30.03 1017 10 16.09344 0 0
4:35 am 04:35 Clear 50 10.2 46 7.7 85 85 WNW 9 15 30.06 1018 10 16.09344 0 0
4:55 am 04:55 Clear 51 10.5 46 7.8 84 84 WNW 10 17 30.03 1017 10 16.09344 0 0
5:15 am 05:15 Clear 51 10.6 46 7.8 83 83 NW 7 11 30.03 1017 10 16.09344 0 0
5:35 am 05:35 Clear 51 10.5 46 7.7 83 83 WNW 7 11 30.03 1017 10 16.09344 0 0
5:55 am 05:55 Clear 51 10.3 46 7.8 85 85 WNW 7 11 30.03 1017 10 16.09344 0 0
6:15 am 06:15 Sunny 51 10.5 46 8 85 85 WNW 8 13 30.09 1019 10 16.09344 0 0
6:35 am 06:35 Sunny 51 10.8 46 8 83 83 WNW 13 20 30.06 1018 10 16.09344 0 0
6:55 am 06:55 Sunny 52 11.2 47 8.2 82 82 WNW 10 17 30.06 1018 10 16.09344 0 0
7:15 am 07:15 Sunny 53 11.5 47 8.5 82 82 WNW 10 17 30.06 1018 10 16.09344 0 0
7:35 am 07:35 Sunny 54 12.3 48 9 80 80 WNW 9 15 30.06 1018 10 16.09344 0 0
7:55 am 07:55 Sunny 55 13 48 9.1 77 77 WNW 13 20 30.06 1018 10 16.09344 0 0
8:15 am 08:15 Sunny 56 13.1 48 9 76 76 NW 15 24 30.06 1018 10 16.09344 0 0
8:35 am 08:35 Sunny 57 14.1 49 9.3 73 73 NW 12 19 30.06 1018 10 16.09344 0 0
8:55 am 08:55 Sunny 59 15.2 49 9.5 69 69 NW 10 17 30.06 1018 10 16.09344 0 0
9:15 am 09:15 Sunny 61 16.2 49 9.7 66 66 NW 12 19 30.06 1018 10 16.09344 0 0
9:35 am 09:35 Sunny 63 17.2 49 9.5 61 61 NNW 12 19 30.06 1018 10 16.09344 0 0
9:55 am 09:55 Sunny 65 18.2 49 9.5 57 57 NW 8 13 30.03 1017 10 16.09344 0 0
10:15 am 10:15 Sunny 66 18.9 48 8.8 52 52 WNW 8 13 30.03 1017 10 16.09344 0 0
10:35 am 10:35 Sunny 67 19.6 47 8.6 49 49 NW 8 13 30.03 1017 10 16.09344 0 0
10:55 am 10:55 Sunny 68 20 46 7.6 45 45 NW 7 11 30.03 1017 10 16.09344 0 0
11:15 am 11:15 Sunny 69 20.8 45 7.3 42 42 WNW 8 13 30 1016 10 16.09344 0 0
11:35 am 11:35 Sunny 70 21.1 43 6.2 38 38 WNW 10 17 30 1016 10 16.09344 0 0
11:55 am 11:55 Sunny 71 21.9 42 5.7 35 35 NW 12 19 30 1016 10 16.09344 0 0
12:15 pm 12:15 Sunny 72 22.3 40 4.7 32 32 NW 18 30 30 1016 10 16.09344 0 0
12:35 pm 12:35 Partly Cloudy 73 22.8 38 3.6 29 29 NW 20 31 30 1016 10 16.09344 0 0
12:55 pm 12:55 Sunny 73 22.8 35 1.8 25 25 NNW 16 26 30 1016 10 16.09344 0 0
1:15 pm 13:15 Sunny 73 23 34 1.1 24 24 WNW 17 28 30 1016 10 16.09344 0 0
1:35 pm 13:35 Sunny 74 23.1 34 1 23 23 NW 18 30 30 1016 10 16.09344 0 0
1:55 pm 13:55 Sunny 74 23.4 34 0.9 23 23 NNW 16 26 30 1016 10 16.09344 0 0
2:15 pm 14:15 Sunny 74 23.5 33 0.6 22 22 NW 16 26 30 1016 10 16.09344 0 0
2:35 pm 14:35 Sunny 75 24.1 33 0.4 21 21 NW 22 35 30 1016 10 16.09344 0 0
2:55 pm 14:55 Sunny 75 23.7 33 0.4 22 22 NW 15 24 29.97 1015 10 16.09344 0 0
3:15 pm 15:15 Sunny 75 24.1 33 0.5 21 21 NNW 15 24 29.94 1014 10 16.09344 0 0
3:35 pm 15:35 Sunny 76 24.2 33 0.8 21 21 NNW 21 33 29.94 1014 10 16.09344 0 0
3:55 pm 15:55 Sunny 75 24.1 32 0.1 21 21 NNW 18 30 29.94 1014 10 16.09344 0 0
4:15 pm 16:15 Sunny 76 24.4 31 -0.6 19 19 NW 15 24 29.94 1014 10 16.09344 0 0
4:35 pm 16:35 Sunny 76 24.3 31 -0.3 20 20 N 12 19 29.94 1014 10 16.09344 0 0
4:55 pm 16:55 Sunny 76 24.4 32 0.2 20 20 NNW 14 22 29.94 1014 10 16.09344 0 0
5:15 pm 17:15 Sunny 76 24.5 30 -1.1 18 18 NNW 15 24 29.94 1014 10 16.09344 0 0
5:35 pm 17:35 Sunny 76 24.5 32 0.2 20 20 NNW 16 26 29.91 1013 10 16.09344 0 0
5:55 pm 17:55 Sunny 76 24.3 32 -0.1 20 20 NW 12 19 29.91 1013 10 16.09344 0 0
6:15 pm 18:15 Sunny 75 24 32 0.1 21 21 N 14 22 29.91 1013 10 16.09344 0 0
6:35 pm 18:35 Sunny 75 24.1 32 0.2 21 21 N 13 20 29.91 1013 10 16.09344 0 0
6:55 pm 18:55 Sunny 74 23.5 33 0.5 22 22 N 14 22 29.94 1014 10 16.09344 0 0
7:15 pm 19:15 Sunny 74 23.5 32 0 21 21 N 14 22 29.94 1014 10 16.09344 0 0
7:35 pm 19:35 Sunny 73 22.9 31 -0.8 21 21 NNW 14 22 29.94 1014 10 16.09344 0 0
7:55 pm 19:55 Sunny 72 22.2 31 -0.5 22 22 N 12 19 29.94 1014 10 16.09344 0 0
8:15 pm 20:15 Sunny 71 21.4 33 0.4 25 25 N 8 13 29.94 1014 10 16.09344 0 0
8:35 pm 20:35 Sunny 68 19.9 36 2 31 31 N 6 9 29.97 1015 10 16.09344 0 0
8:55 pm 20:55 Sunny 65 18.6 36 2.4 34 34 NNE 5 7 29.97 1015 10 16.09344 0 0
9:15 pm 21:15 Clear 63 17 39 3.7 41 41 NNE 7 11 29.97 1015 10 16.09344 0 0
9:35 pm 21:35 Clear 62 16.7 37 3 40 40 NE 6 9 30 1016 10 16.09344 0 0
9:55 pm 21:55 Clear 61 15.9 38 3.5 44 44 ENE 5 7 30.03 1017 10 16.09344 0 0
10:15 pm 22:15 Clear 58 14.5 39 4.1 50 50 ENE 5 7 30.03 1017 10 16.09344 0 0
10:35 pm 22:35 Clear 56 13.6 41 5 56 56 Calm 30.06 1018 10 16.09344 0 0
10:55 pm 22:55 Clear 56 13.1 41 5.2 59 59 Calm 30.06 1018 10 16.09344 0 0
11:15 pm 23:15 Clear 56 13.1 41 5.1 59 59 Calm 30.09 1019 10 16.09344 0 0
11:35 pm 23:35 Clear 53 11.8 43 6 68 68 Calm 30.09 1019 10 16.09344 0 0
11:55 pm 23:55 Clear 53 11.6 43 6.3 70 70 Calm 30.09 1019 10 16.09344 0 0

Powered by AerisWeather